PLF043 EPKK-EPWA

Flight info

Callsign PLF043
Flight time 0h 43m
Altitude 15000
Route POBOK M985 KOTEK M866 LOGDA
Aircraft C295/M-SDFGIRY/S

Departure

Time 2026-05-04 06:11
Airport Kraków John Paul II International Airport (EPKK)

Arrival

Time 2026-05-04 06:54
Airport Warsaw Chopin Airport (EPWA)
Time Latitude Longitude Altitude Speed Heading
2026-05-04 05:54 50.07517 19.78963 797 ft 0 kts 336°
2026-05-04 06:06 50.07518 19.78962 796 ft 2 kts 336°
2026-05-04 06:06 50.07544 19.78948 796 ft 2 kts 352°
2026-05-04 06:06 50.07552 19.78957 796 ft 2 kts 40°
2026-05-04 06:06 50.07566 19.78998 796 ft 6 kts 67°
2026-05-04 06:07 50.07590 19.79079 796 ft 10 kts 65°
2026-05-04 06:07 50.07617 19.79184 796 ft 11 kts 73°
2026-05-04 06:07 50.07634 19.79305 796 ft 12 kts 77°
2026-05-04 06:07 50.07653 19.79438 796 ft 13 kts 77°
2026-05-04 06:08 50.07671 19.79576 796 ft 13 kts 78°
2026-05-04 06:08 50.07685 19.79669 796 ft 13 kts 77°
2026-05-04 06:08 50.07706 19.79811 796 ft 13 kts 77°
2026-05-04 06:08 50.07724 19.79954 796 ft 14 kts 78°
2026-05-04 06:09 50.07743 19.80099 797 ft 14 kts 78°
2026-05-04 06:09 50.07763 19.80243 797 ft 14 kts 78°
2026-05-04 06:11 50.07746 19.78320 941 ft 138 kts 257°
2026-05-04 06:11 50.07527 19.76800 1484 ft 154 kts 256°
2026-05-04 06:13 50.06082 19.64706 5415 ft 179 kts 294°
2026-05-04 06:14 50.13582 19.61113 8104 ft 200 kts
2026-05-04 06:14 50.14936 19.62009 8103 ft 227 kts 37°
2026-05-04 06:15 50.16165 19.63698 8084 ft 243 kts 43°
2026-05-04 06:15 50.17401 19.65535 8089 ft 253 kts 43°
2026-05-04 06:15 50.18708 19.67445 8078 ft 260 kts 43°
2026-05-04 06:15 50.20056 19.69365 8073 ft 265 kts 41°
2026-05-04 06:16 50.21448 19.71287 8072 ft 268 kts 41°
2026-05-04 06:16 50.22864 19.73191 8066 ft 269 kts 40°
2026-05-04 06:16 50.24298 19.75089 8068 ft 270 kts 40°
2026-05-04 06:16 50.25731 19.77000 8072 ft 271 kts 41°
2026-05-04 06:17 50.27160 19.78941 8062 ft 273 kts 41°
2026-05-04 06:17 50.28592 19.80895 8064 ft 272 kts 40°
2026-05-04 06:17 50.30008 19.82832 8071 ft 273 kts 41°
2026-05-04 06:17 50.31444 19.84782 8152 ft 268 kts 40°
2026-05-04 06:18 50.32781 19.86624 8780 ft 246 kts 40°
2026-05-04 06:18 50.34025 19.88331 9406 ft 230 kts 40°
2026-05-04 06:18 50.35200 19.89943 9992 ft 219 kts 39°
2026-05-04 06:20 50.43133 20.00833 12651 ft 220 kts 40°
2026-05-04 06:20 50.44289 20.02414 12991 ft 221 kts 40°
2026-05-04 06:21 50.48958 20.08873 14321 ft 226 kts 40°
2026-05-04 06:21 50.50136 20.10502 14621 ft 226 kts 40°
2026-05-04 06:22 50.51323 20.12138 14896 ft 230 kts 40°
2026-05-04 06:22 50.52551 20.13837 14980 ft 242 kts 40°
2026-05-04 06:25 50.74021 20.31514 15039 ft 282 kts 21°
2026-05-04 06:25 50.75828 20.32737 15044 ft 282 kts 21°
2026-05-04 06:26 50.77642 20.33944 15044 ft 282 kts 21°
2026-05-04 06:26 50.79450 20.35161 15041 ft 283 kts 21°
2026-05-04 06:26 50.81258 20.36406 15047 ft 283 kts 21°
2026-05-04 06:26 50.83062 20.37650 15042 ft 283 kts 21°
2026-05-04 06:27 50.90269 20.42638 15033 ft 283 kts 22°
2026-05-04 06:28 50.92075 20.43887 15035 ft 283 kts 21°
2026-05-04 06:28 50.93874 20.45133 15037 ft 283 kts 21°
2026-05-04 06:28 50.95692 20.46398 15044 ft 283 kts 21°
2026-05-04 06:28 50.97496 20.47650 15032 ft 283 kts 21°
2026-05-04 06:29 50.99304 20.48908 15045 ft 283 kts 21°
2026-05-04 06:29 51.01113 20.50167 15033 ft 284 kts 22°
2026-05-04 06:29 51.02899 20.51415 15033 ft 283 kts 21°
2026-05-04 06:29 51.04711 20.52674 15040 ft 283 kts 22°
2026-05-04 06:30 51.06518 20.53936 15032 ft 283 kts 21°
2026-05-04 06:30 51.08325 20.55197 15042 ft 284 kts 21°
2026-05-04 06:30 51.10133 20.56463 15031 ft 284 kts 21°
2026-05-04 06:30 51.11942 20.57725 15042 ft 283 kts 21°
2026-05-04 06:31 51.13747 20.58990 15036 ft 284 kts 21°
2026-05-04 06:31 51.15531 20.60244 15029 ft 284 kts 22°
2026-05-04 06:31 51.17363 20.61528 15036 ft 284 kts 21°
2026-05-04 06:31 51.19172 20.62796 15027 ft 284 kts 21°
2026-05-04 06:32 51.20957 20.64050 15029 ft 284 kts 22°
2026-05-04 06:33 51.33604 20.73319 14549 ft 299 kts 24°
2026-05-04 06:34 51.35449 20.74771 14191 ft 291 kts 24°
2026-05-04 06:34 51.37256 20.76188 13817 ft 286 kts 24°
2026-05-04 06:34 51.39031 20.77564 13434 ft 282 kts 24°
2026-05-04 06:34 51.40783 20.78932 13045 ft 279 kts 24°
2026-05-04 06:35 51.42517 20.80289 12658 ft 277 kts 24°
2026-05-04 06:36 51.54612 20.89780 10066 ft 276 kts 24°
2026-05-04 06:37 51.56333 20.91133 9701 ft 275 kts 23°
2026-05-04 06:37 51.58056 20.92489 9317 ft 276 kts 24°
2026-05-04 06:37 51.59762 20.93830 8925 ft 276 kts 24°
2026-05-04 06:37 51.61504 20.95207 8521 ft 275 kts 24°
2026-05-04 06:38 51.63224 20.96561 8157 ft 275 kts 24°
2026-05-04 06:38 51.64920 20.97908 7785 ft 275 kts 24°
2026-05-04 06:40 51.76997 21.07480 5200 ft 275 kts 24°
2026-05-04 06:40 51.78747 21.08637 4842 ft 270 kts 25°
2026-05-04 06:40 51.80355 21.10217 4454 ft 273 kts 32°
2026-05-04 06:40 51.81927 21.11871 4078 ft 270 kts 25°
2026-05-04 06:41 51.83719 21.12510 3703 ft 262 kts 352°
2026-05-04 06:41 51.85372 21.11595 3372 ft 246 kts 319°
2026-05-04 06:41 51.86405 21.09586 3173 ft 223 kts 296°
2026-05-04 06:41 51.87194 21.07473 3126 ft 216 kts 295°
2026-05-04 06:42 51.88013 21.05465 3065 ft 212 kts 300°
2026-05-04 06:42 51.88939 21.03558 3088 ft 218 kts 302°
2026-05-04 06:42 51.89962 21.01697 3094 ft 224 kts 307°
2026-05-04 06:44 51.98990 20.91034 3082 ft 229 kts 317°
2026-05-04 06:44 52.00235 20.89457 3038 ft 227 kts 315°
2026-05-04 06:44 52.01468 20.87851 3082 ft 227 kts 314°
2026-05-04 06:45 52.02688 20.86214 3057 ft 227 kts 314°
2026-05-04 06:45 52.03899 20.84570 3083 ft 227 kts 314°
2026-05-04 06:45 52.05100 20.82915 3083 ft 227 kts 314°
2026-05-04 06:45 52.06298 20.81251 3034 ft 226 kts 314°
2026-05-04 06:46 52.07495 20.79584 3074 ft 227 kts 313°
2026-05-04 06:46 52.08695 20.77907 3105 ft 227 kts 313°
2026-05-04 06:46 52.09889 20.76216 3097 ft 228 kts 314°
2026-05-04 06:46 52.11085 20.74524 3043 ft 227 kts 314°
2026-05-04 06:48 52.20502 20.66516 3120 ft 223 kts 352°
2026-05-04 06:48 52.21964 20.66130 3067 ft 201 kts 340°
2026-05-04 06:49 52.23303 20.66197 3062 ft 192 kts 20°
2026-05-04 06:50 52.22835 20.76259 3013 ft 144 kts 133°
2026-05-04 06:51 52.22264 20.77556 2992 ft 142 kts 133°
2026-05-04 06:51 52.21688 20.78859 3043 ft 143 kts 135°
2026-05-04 06:51 52.21098 20.80165 3046 ft 144 kts 134°
2026-05-04 06:51 52.20602 20.81629 2800 ft 162 kts 110°
2026-05-04 06:52 52.20315 20.83468 2509 ft 164 kts 114°
2026-05-04 06:52 52.19899 20.85139 2443 ft 158 kts 123°
2026-05-04 06:52 52.19443 20.86845 2008 ft 171 kts 119°
2026-05-04 06:52 52.18968 20.88520 1427 ft 151 kts 128°
2026-05-04 06:53 52.18480 20.89981 1075 ft 152 kts 122°
2026-05-04 06:53 52.18053 20.91524 816 ft 140 kts 118°
2026-05-04 06:53 52.17636 20.92930 652 ft 137 kts 112°
2026-05-04 06:53 52.17266 20.94343 471 ft 132 kts 119°
2026-05-04 06:54 52.16898 20.95597 349 ft 108 kts 117°
2026-05-04 06:54 52.16646 20.96449 335 ft 58 kts 117°
2026-05-04 06:54 52.16519 20.96913 332 ft 33 kts 103°
2026-05-04 06:54 52.16514 20.97220 334 ft 22 kts 84°
2026-05-04 06:55 52.16562 20.97365 333 ft 12 kts 358°
2026-05-04 06:55 52.16606 20.97270 331 ft 10 kts 290°
2026-05-04 06:55 52.16630 20.97178 333 ft 8 kts 294°
2026-05-04 06:55 52.16653 20.97091 332 ft 9 kts 294°
2026-05-04 06:56 52.16685 20.97014 331 ft 9 kts 320°
2026-05-04 06:57 52.17260 20.96511 333 ft 16 kts 330°
2026-05-04 06:58 52.17357 20.96425 332 ft 16 kts 333°
2026-05-04 06:58 52.17444 20.96426 334 ft 14 kts 58°
2026-05-04 06:58 52.17510 20.96584 333 ft 18 kts 48°
2026-05-04 06:58 52.17578 20.96767 332 ft 21 kts 61°
2026-05-04 06:59 52.17658 20.96973 334 ft 23 kts 45°
2026-05-04 06:59 52.17637 20.97125 335 ft 13 kts 155°
2026-05-04 06:59 52.17605 20.97131 333 ft 2 kts 222°
2026-05-04 06:59 52.17598 20.97115 333 ft 1 kts 243°